| time (UTC) | temp C | wind direction | speed KPH | gust KPH | rain 1hr cm | rain 24hr cm | rain mn cm | humidity % | barometer mb |
| 20260505184504 | 12 | 34 | 6.4 | 14.5 | 0.00 | 0.00 | 0.00 | 62 | 1012.6 |
| 20260505183004 | 12 | 41 | 8.0 | 14.5 | 0.00 | 0.00 | 0.00 | 61 | 1012.6 |
| 20260505182504 | 12 | 42 | 8.0 | 19.3 | 0.00 | 0.00 | 0.00 | 61 | 1012.5 |
| 20260505181504 | 12 | 59 | 8.0 | 16.1 | 0.00 | 0.00 | 0.00 | 61 | 1012.5 |
| 20260505180503 | 13 | 36 | 9.7 | 20.9 | 0.00 | 0.00 | 0.00 | 62 | 1012.5 |
| 20260505180005 | 13 | 41 | 9.7 | 22.5 | 0.00 | 0.00 | 0.00 | 61 | 1012.5 |
| 20260505174003 | 13 | 31 | 8.0 | 19.3 | 0.00 | 0.00 | 0.00 | 59 | 1012.5 |
| 20260505173504 | 13 | 25 | 8.0 | 16.1 | 0.00 | 0.00 | 0.00 | 59 | 1012.5 |
| 20260505173003 | 13 | 40 | 9.7 | 19.3 | 0.00 | 0.00 | 0.00 | 58 | 1012.5 |
| 20260505172503 | 13 | 19 | 9.7 | 19.3 | 0.00 | 0.00 | 0.00 | 58 | 1012.6 |
| 20260505172004 | 13 | 32 | 8.0 | 16.1 | 0.00 | 0.00 | 0.00 | 58 | 1012.6 |
| 20260505171503 | 14 | 48 | 11.3 | 20.9 | 0.00 | 0.00 | 0.00 | 56 | 1012.6 |
| 20260505171004 | 14 | 38 | 8.0 | 19.3 | 0.00 | 0.00 | 0.00 | 57 | 1012.6 |
| 20260505170004 | 14 | 61 | 9.7 | 20.9 | 0.00 | 0.00 | 0.00 | 57 | 1012.5 |
| 20260505165503 | 14 | 64 | 8.0 | 22.5 | 0.00 | 0.00 | 0.00 | 57 | 1012.5 |
| 20260505165003 | 14 | 57 | 9.7 | 19.3 | 0.00 | 0.00 | 0.00 | 57 | 1012.5 |
| 20260505164504 | 14 | 63 | 8.0 | 16.1 | 0.00 | 0.00 | 0.00 | 56 | 1012.6 |
| 20260505163503 | 14 | 70 | 4.8 | 16.1 | 0.00 | 0.00 | 0.00 | 56 | 1012.5 |
| 20260505163006 | 14 | 64 | 9.7 | 20.9 | 0.00 | 0.00 | 0.00 | 58 | 1012.5 |
| 20260505162504 | 14 | 39 | 9.7 | 20.9 | 0.00 | 0.00 | 0.00 | 57 | 1012.5 |
| 20260505162004 | 15 | 21 | 8.0 | 19.3 | 0.00 | 0.00 | 0.00 | 58 | 1012.5 |
| 20260505161503 | 15 | 351 | 9.7 | 19.3 | 0.00 | 0.00 | 0.00 | 57 | 1012.6 |
| 20260505161004 | 15 | 47 | 9.7 | 19.3 | 0.00 | 0.00 | 0.00 | 61 | 1012.5 |
| 20260505160503 | 15 | 39 | 8.0 | 22.5 | 0.00 | 0.00 | 0.00 | 59 | 1012.5 |
| 20260505153003 | 15 | 13 | 11.3 | 25.7 | 0.00 | 0.00 | 0.00 | 60 | 1012.7 |
| 20260505152503 | 15 | 350 | 11.3 | 19.3 | 0.00 | 0.00 | 0.00 | 60 | 1012.7 |
| 20260505151004 | 15 | 36 | 9.7 | 20.9 | 0.00 | 0.00 | 0.00 | 60 | 1012.7 |
| 20260505150504 | 15 | 56 | 9.7 | 22.5 | 0.00 | 0.00 | 0.00 | 60 | 1012.6 |
| 20260505140504 | 16 | 18 | 9.7 | 19.3 | 0.00 | 0.00 | 0.00 | 53 | 1012.8 |
| 20260505125003 | 16 | 325 | 9.7 | 20.9 | 0.00 | 0.00 | 0.00 | 52 | 1012.9 |
| 20260505123504 | 16 | 16 | 3.2 | 16.1 | 0.00 | 0.00 | 0.00 | 52 | 1012.8 |
| 20260505121504 | 16 | 7 | 8.0 | 16.1 | 0.00 | 0.00 | 0.00 | 54 | 1012.9 |
| 20260505120005 | 16 | 341 | 14.5 | 22.5 | 0.00 | 0.00 | 0.00 | 53 | 1013.0 |
| 20260505115504 | 16 | 323 | 9.7 | 19.3 | 0.00 | 0.00 | 0.00 | 58 | 1013.0 |
| 20260505115004 | 16 | 345 | 8.0 | 19.3 | 0.00 | 0.00 | 0.00 | 52 | 1013.0 |
| 20260505114004 | 16 | 271 | 3.2 | 12.9 | 0.00 | 0.00 | 0.00 | 51 | 1013.1 |
| 20260505113505 | 16 | 335 | 4.8 | 12.9 | 0.00 | 0.00 | 0.00 | 54 | 1013.1 |
| 20260505113005 | 16 | 33 | 9.7 | 19.3 | 0.00 | 0.00 | 0.00 | 56 | 1013.2 |
| 20260505112504 | 16 | 301 | 9.7 | 16.1 | 0.00 | 0.00 | 0.00 | 52 | 1013.2 |
| 20260505112003 | 16 | 325 | 3.2 | 9.7 | 0.00 | 0.00 | 0.00 | 53 | 1013.2 |
| 20260505111004 | 16 | 332 | 6.4 | 14.5 | 0.00 | 0.00 | 0.00 | 52 | 1013.3 |
| 20260505102004 | 16 | 51 | 8.0 | 19.3 | 0.00 | 0.00 | 0.00 | 54 | 1013.5 |
| 20260505101503 | 16 | 332 | 9.7 | 20.9 | 0.00 | 0.00 | 0.00 | 55 | 1013.5 |
| 20260505101004 | 16 | 298 | 8.0 | 22.5 | 0.00 | 0.00 | 0.00 | 55 | 1013.5 |
| 20260505100504 | 16 | 41 | 8.0 | 16.1 | 0.00 | 0.00 | 0.00 | 58 | 1013.5 |
| 20260505100004 | 16 | 317 | 8.0 | 16.1 | 0.00 | 0.00 | 0.00 | 56 | 1013.5 |
| 20260505095503 | 16 | 36 | 8.0 | 16.1 | 0.00 | 0.00 | 0.00 | 58 | 1013.5 |
| 20260505095004 | 16 | 320 | 9.7 | 19.3 | 0.00 | 0.00 | 0.00 | 58 | 1013.5 |
| 20260505094004 | 16 | 0 | 3.2 | 16.1 | 0.00 | 0.00 | 0.00 | 60 | 1013.6 |
| 20260505093504 | 15 | 84 | 4.8 | 9.7 | 0.00 | 0.00 | 0.00 | 59 | 1013.5 |
| 20260505092503 | 15 | 45 | 8.0 | 14.5 | 0.00 | 0.00 | 0.00 | 63 | 1013.7 |
| 20260505090504 | 14 | 350 | 1.6 | 8.0 | 0.00 | 0.00 | 0.00 | 64 | 1013.8 |
| 20260505090004 | 13 | 72 | 3.2 | 11.3 | 0.00 | 0.00 | 0.00 | 64 | 1013.8 |
| 20260505085503 | 13 | 76 | 4.8 | 8.0 | 0.00 | 0.00 | 0.00 | 65 | 1013.8 |
| 20260505085004 | 13 | 77 | 8.0 | 12.9 | 0.00 | 0.00 | 0.00 | 64 | 1013.7 |
| 20260505084503 | 13 | 81 | 4.8 | 9.7 | 0.00 | 0.00 | 0.00 | 66 | 1013.8 |
| 20260505084004 | 13 | 40 | 8.0 | 12.9 | 0.00 | 0.00 | 0.00 | 67 | 1013.8 |
| 20260505083504 | 12 | 62 | 3.2 | 12.9 | 0.00 | 0.00 | 0.00 | 67 | 1013.9 |
| 20260505083004 | 12 | 37 | 6.4 | 14.5 | 0.00 | 0.00 | 0.00 | 67 | 1013.9 |
| 20260505082504 | 12 | 11 | 4.8 | 9.7 | 0.00 | 0.00 | 0.00 | 68 | 1013.9 |
| 20260505082004 | 12 | 32 | 6.4 | 12.9 | 0.00 | 0.00 | 0.00 | 67 | 1014.0 |
| 20260505081505 | 12 | 4 | 8.0 | 20.9 | 0.00 | 0.00 | 0.00 | 66 | 1013.9 |
| 20260505081003 | 12 | 12 | 6.4 | 14.5 | 0.00 | 0.00 | 0.00 | 65 | 1013.9 |
| 20260505080503 | 12 | 17 | 4.8 | 9.7 | 0.00 | 0.00 | 0.00 | 65 | 1013.9 |
| 20260505075503 | 12 | 13 | 8.0 | 14.5 | 0.00 | 0.00 | 0.00 | 64 | 1013.9 |
| 20260505074505 | 13 | 31 | 4.8 | 14.5 | 0.00 | 0.00 | 0.00 | 63 | 1013.9 |
| 20260505074004 | 13 | 49 | 6.4 | 19.3 | 0.00 | 0.00 | 0.00 | 64 | 1013.8 |
| 20260505073504 | 13 | 86 | 8.0 | 14.5 | 0.00 | 0.00 | 0.00 | 65 | 1013.8 |
| 20260505072503 | 12 | 52 | 6.4 | 14.5 | 0.00 | 0.00 | 0.00 | 66 | 1013.9 |
| 20260505072004 | 12 | 59 | 6.4 | 16.1 | 0.00 | 0.00 | 0.00 | 68 | 1014.0 |
| 20260505071503 | 12 | 33 | 4.8 | 16.1 | 0.00 | 0.00 | 0.00 | 69 | 1014.0 |
| 20260505071004 | 11 | 50 | 8.0 | 16.1 | 0.00 | 0.00 | 0.00 | 68 | 1013.9 |
| 20260505070504 | 11 | 57 | 4.8 | 14.5 | 0.00 | 0.00 | 0.00 | 70 | 1013.9 |
| 20260505065503 | 10 | 68 | 8.0 | 16.1 | 0.00 | 0.00 | 0.00 | 70 | 1013.9 |
| 20260505065003 | 10 | 38 | 3.2 | 11.3 | 0.00 | 0.00 | 0.00 | 71 | 1013.9 |
| 20260505064004 | 10 | 51 | 3.2 | 14.5 | 0.00 | 0.00 | 0.00 | 72 | 1013.9 |
| 20260505063503 | 10 | 81 | 3.2 | 11.3 | 0.00 | 0.00 | 0.00 | 73 | 1014.0 |
| 20260505063004 | 10 | 69 | 4.8 | 8.0 | 0.00 | 0.00 | 0.00 | 74 | 1013.9 |
| 20260505062504 | 10 | 68 | 3.2 | 4.8 | 0.00 | 0.00 | 0.00 | 73 | 1013.9 |
| 20260505062004 | 10 | 85 | 3.2 | 4.8 | 0.00 | 0.03 | 0.00 | 73 | 1013.9 |
| 20260505061504 | 10 | 76 | 1.6 | 4.8 | 0.00 | 0.05 | 0.00 | 73 | 1013.9 |
| 20260505061003 | 10 | 74 | 3.2 | 4.8 | 0.00 | 0.08 | 0.00 | 74 | 1013.9 |
| 20260505060503 | 10 | 71 | 3.2 | 4.8 | 0.00 | 0.13 | 0.00 | 74 | 1013.9 |
| 20260505055003 | 10 | 53 | 3.2 | 9.7 | 0.00 | 0.33 | 0.00 | 74 | 1013.9 |
| 20260505053504 | 10 | 49 | 3.2 | 12.9 | 0.00 | 0.33 | 0.00 | 78 | 1013.8 |
| 20260505053003 | 10 | 38 | 4.8 | 12.9 | 0.00 | 0.33 | 0.00 | 79 | 1013.9 |
| 20260505052504 | 10 | 66 | 3.2 | 8.0 | 0.00 | 0.33 | 0.00 | 80 | 1013.9 |
| 20260505052003 | 10 | 70 | 3.2 | 4.8 | 0.00 | 0.33 | 0.00 | 80 | 1013.8 |
| 20260505051504 | 10 | 70 | 1.6 | 4.8 | 0.00 | 0.33 | 0.00 | 80 | 1013.8 |
| 20260505051003 | 10 | 70 | 3.2 | 8.0 | 0.00 | 0.33 | 0.00 | 80 | 1013.8 |
| 20260505041504 | 10 | 66 | 4.8 | 4.8 | 0.00 | 0.33 | 0.00 | 84 | 1013.8 |
| 20260505041004 | 10 | 58 | 4.8 | 8.0 | 0.00 | 0.33 | 0.00 | 84 | 1013.8 |
| 20260505040504 | 10 | 39 | 3.2 | 9.7 | 0.00 | 0.33 | 0.00 | 84 | 1013.8 |
| 20260505035504 | 10 | 39 | 6.4 | 11.3 | 0.00 | 0.33 | 0.00 | 85 | 1013.7 |
| 20260505035003 | 10 | 53 | 3.2 | 9.7 | 0.00 | 0.33 | 0.00 | 85 | 1013.8 |
| 20260505034504 | 10 | 46 | 3.2 | 8.0 | 0.00 | 0.33 | 0.00 | 85 | 1013.8 |
| 20260505034003 | 10 | 18 | 1.6 | 4.8 | 0.00 | 0.33 | 0.00 | 85 | 1013.8 |
| 20260505033503 | 10 | 16 | 3.2 | 4.8 | 0.00 | 0.33 | 0.00 | 85 | 1013.8 |
| 20260505033004 | 10 | 14 | 4.8 | 4.8 | 0.00 | 0.33 | 0.00 | 86 | 1013.8 |
| 20260505032004 | 10 | 72 | 1.6 | 4.8 | 0.00 | 0.33 | 0.00 | 86 | 1013.8 |
| 20260505031504 | 10 | 72 | 1.6 | 4.8 | 0.00 | 0.33 | 0.00 | 86 | 1013.8 |
| 20260505031003 | 10 | 72 | 1.6 | 4.8 | 0.00 | 0.33 | 0.00 | 86 | 1013.9 |
| 20260505030505 | 10 | 73 | 1.6 | 3.2 | 0.00 | 0.33 | 0.00 | 86 | 1013.9 |
| 20260505030004 | 10 | 73 | 3.2 | 4.8 | 0.00 | 0.33 | 0.00 | 86 | 1014.0 |
| 20260505025504 | 10 | 41 | 1.6 | 8.0 | 0.00 | 0.33 | 0.00 | 86 | 1013.9 |
| 20260505025004 | 10 | 38 | 1.6 | 4.8 | 0.00 | 0.33 | 0.00 | 86 | 1013.9 |
| 20260505024503 | 10 | 37 | 3.2 | 4.8 | 0.00 | 0.33 | 0.00 | 86 | 1013.9 |
| 20260505024004 | 10 | 41 | 3.2 | 4.8 | 0.00 | 0.33 | 0.00 | 86 | 1013.9 |
| 20260505023504 | 10 | 42 | 3.2 | 4.8 | 0.00 | 0.33 | 0.00 | 86 | 1013.9 |
| 20260505023004 | 10 | 40 | 1.6 | 4.8 | 0.00 | 0.33 | 0.00 | 86 | 1013.9 |
| 20260505022003 | 10 | 36 | 3.2 | 4.8 | 0.00 | 0.33 | 0.00 | 86 | 1014.0 |
| 20260505021504 | 10 | 35 | 1.6 | 4.8 | 0.00 | 0.33 | 0.00 | 86 | 1013.9 |
| 20260505021004 | 10 | 31 | 3.2 | 8.0 | 0.00 | 0.33 | 0.00 | 85 | 1013.8 |
| 20260505020503 | 10 | 34 | 1.6 | 8.0 | 0.00 | 0.33 | 0.00 | 85 | 1013.8 |
| 20260505020004 | 10 | 50 | 1.6 | 4.8 | 0.00 | 0.33 | 0.00 | 85 | 1013.8 |
| 20260505015503 | 10 | 51 | 3.2 | 4.8 | 0.00 | 0.33 | 0.00 | 85 | 1013.9 |
| 20260505015004 | 10 | 53 | 1.6 | 4.8 | 0.00 | 0.33 | 0.00 | 84 | 1013.9 |
| 20260505014503 | 10 | 57 | 3.2 | 4.8 | 0.00 | 0.33 | 0.00 | 84 | 1013.9 |
| 20260505014004 | 10 | 57 | 1.6 | 4.8 | 0.00 | 0.33 | 0.00 | 84 | 1013.9 |
| 20260505013004 | 10 | 44 | 4.8 | 12.9 | 0.00 | 0.33 | 0.00 | 84 | 1014.1 |
| 20260505012503 | 10 | 55 | 3.2 | 4.8 | 0.00 | 0.33 | 0.00 | 83 | 1014.2 |
| 20260505011504 | 10 | 29 | 1.6 | 4.8 | 0.00 | 0.33 | 0.00 | 83 | 1014.2 |
| 20260505010504 | 11 | 45 | 1.6 | 4.8 | 0.00 | 0.33 | 0.00 | 84 | 1014.1 |
| 20260505010004 | 11 | 42 | 4.8 | 8.0 | 0.00 | 0.33 | 0.00 | 84 | 1014.1 |
| 20260505005503 | 11 | 65 | 3.2 | 8.0 | 0.00 | 0.33 | 0.00 | 84 | 1014.1 |
| 20260505005004 | 11 | 65 | 3.2 | 4.8 | 0.00 | 0.33 | 0.00 | 84 | 1014.2 |
| 20260505004505 | 11 | 68 | 3.2 | 8.0 | 0.00 | 0.33 | 0.00 | 84 | 1014.2 |
| 20260505003503 | 11 | 69 | 1.6 | 9.7 | 0.00 | 0.33 | 0.00 | 85 | 1014.3 |
| 20260505003003 | 11 | 92 | 0.0 | 0.0 | 0.00 | 0.33 | 0.00 | 85 | 1014.3 |
| 20260505002004 | 11 | 92 | 0.0 | 0.0 | 0.00 | 0.33 | 0.00 | 85 | 1014.3 |
| 20260505001503 | 11 | 92 | 0.0 | 0.0 | 0.00 | 0.33 | 0.00 | 85 | 1014.4 |
| 20260505001004 | 11 | 92 | 0.0 | 0.0 | 0.00 | 0.33 | 0.00 | 85 | 1014.4 |
| 20260505000503 | 11 | 92 | 0.0 | 0.0 | 0.00 | 0.33 | 0.00 | 85 | 1014.5 |
| 20260505000004 | 11 | 92 | 0.0 | 0.0 | 0.00 | 0.33 | 0.00 | 85 | 1014.5 |
| 20260504235503 | 11 | 92 | 0.0 | 0.0 | 0.00 | 0.33 | 0.00 | 85 | 1014.5 |
| 20260504235004 | 11 | 92 | 0.0 | 0.0 | 0.00 | 0.33 | 0.00 | 85 | 1014.6 |
| 20260504234504 | 11 | 92 | 0.0 | 0.0 | 0.00 | 0.33 | 0.00 | 86 | 1014.7 |
| 20260504234004 | 11 | 92 | 0.0 | 0.0 | 0.00 | 0.33 | 0.00 | 85 | 1014.6 |
| 20260504233504 | 11 | 92 | 0.0 | 0.0 | 0.00 | 0.33 | 0.00 | 85 | 1014.6 |
| 20260504233003 | 11 | 92 | 0.0 | 0.0 | 0.00 | 0.33 | 0.00 | 85 | 1014.6 |
| 20260504232504 | 11 | 92 | 0.0 | 0.0 | 0.00 | 0.33 | 0.00 | 85 | 1014.6 |
| 20260504232004 | 11 | 92 | 0.0 | 4.8 | 0.00 | 0.33 | 0.00 | 85 | 1014.7 |
| 20260504231503 | 11 | 92 | 0.0 | 1.6 | 0.00 | 0.33 | 0.00 | 85 | 1014.6 |
| 20260504230503 | 11 | 92 | 1.6 | 3.2 | 0.00 | 0.33 | 0.00 | 84 | 1014.6 |
| 20260504230005 | 11 | 92 | 1.6 | 4.8 | 0.00 | 0.33 | 0.00 | 84 | 1014.6 |
| 20260504225504 | 11 | 92 | 1.6 | 3.2 | 0.00 | 0.33 | 0.33 | 84 | 1014.5 |
| 20260504225003 | 11 | 92 | 1.6 | 4.8 | 0.00 | 0.33 | 0.33 | 84 | 1014.5 |
| 20260504224504 | 11 | 92 | 1.6 | 4.8 | 0.00 | 0.33 | 0.33 | 84 | 1014.4 |
| 20260504224004 | 11 | 92 | 4.8 | 9.7 | 0.00 | 0.33 | 0.33 | 84 | 1014.5 |
| 20260504223503 | 11 | 97 | 3.2 | 9.7 | 0.00 | 0.33 | 0.33 | 84 | 1014.5 |
| 20260504223004 | 11 | 98 | 1.6 | 4.8 | 0.00 | 0.33 | 0.33 | 84 | 1014.6 |
| 20260504222504 | 11 | 98 | 1.6 | 4.8 | 0.00 | 0.33 | 0.33 | 85 | 1014.6 |
| 20260504222004 | 11 | 98 | 1.6 | 4.8 | 0.00 | 0.33 | 0.33 | 84 | 1014.6 |
| 20260504221504 | 11 | 98 | 1.6 | 3.2 | 0.00 | 0.33 | 0.33 | 84 | 1014.5 |
| 20260504221003 | 11 | 98 | 0.0 | 3.2 | 0.00 | 0.33 | 0.33 | 84 | 1014.6 |
| 20260504220004 | 11 | 98 | 0.0 | 1.6 | 0.00 | 0.33 | 0.33 | 84 | 1014.6 |
| 20260504215503 | 11 | 98 | 1.6 | 3.2 | 0.00 | 0.33 | 0.33 | 84 | 1014.6 |
| 20260504215004 | 11 | 98 | 3.2 | 4.8 | 0.00 | 0.33 | 0.33 | 83 | 1014.6 |
| 20260504214503 | 11 | 98 | 1.6 | 4.8 | 0.00 | 0.33 | 0.33 | 83 | 1014.5 |
| 20260504214004 | 11 | 98 | 3.2 | 4.8 | 0.00 | 0.33 | 0.33 | 84 | 1014.5 |
| 20260504213503 | 11 | 98 | 1.6 | 4.8 | 0.00 | 0.33 | 0.33 | 84 | 1014.5 |
| 20260504213004 | 11 | 98 | 0.0 | 0.0 | 0.00 | 0.33 | 0.33 | 84 | 1014.6 |
| 20260504212503 | 11 | 98 | 0.0 | 0.0 | 0.00 | 0.33 | 0.33 | 83 | 1014.6 |
| 20260504212004 | 11 | 98 | 0.0 | 0.0 | 0.00 | 0.33 | 0.33 | 83 | 1014.6 |
| 20260504211503 | 11 | 98 | 0.0 | 0.0 | 0.00 | 0.33 | 0.33 | 83 | 1014.6 |
| 20260504211004 | 11 | 98 | 1.6 | 1.6 | 0.00 | 0.33 | 0.33 | 83 | 1014.6 |
| 20260504210504 | 11 | 98 | 0.0 | 0.0 | 0.00 | 0.33 | 0.33 | 82 | 1014.6 |
| 20260504210005 | 11 | 98 | 0.0 | 0.0 | 0.00 | 0.33 | 0.33 | 82 | 1014.6 |
| 20260504205503 | 11 | 98 | 1.6 | 3.2 | 0.00 | 0.33 | 0.33 | 81 | 1014.6 |
| 20260504204503 | 12 | 98 | 1.6 | 3.2 | 0.00 | 0.33 | 0.33 | 80 | 1014.5 |
| 20260504204004 | 12 | 98 | 1.6 | 3.2 | 0.00 | 0.33 | 0.33 | 80 | 1014.5 |
| 20260504203503 | 12 | 98 | 3.2 | 4.8 | 0.00 | 0.33 | 0.33 | 80 | 1014.5 |
| 20260504203003 | 12 | 98 | 1.6 | 4.8 | 0.00 | 0.33 | 0.33 | 80 | 1014.4 |
| 20260504202504 | 12 | 98 | 1.6 | 4.8 | 0.00 | 0.33 | 0.33 | 79 | 1014.4 |
| 20260504202004 | 12 | 98 | 0.0 | 0.0 | 0.00 | 0.33 | 0.33 | 79 | 1014.4 |
| 20260504200503 | 13 | 98 | 1.6 | 3.2 | 0.00 | 0.33 | 0.33 | 78 | 1014.2 |
| 20260504200003 | 13 | 98 | 1.6 | 3.2 | 0.00 | 0.33 | 0.33 | 77 | 1014.2 |
| 20260504195503 | 13 | 98 | 1.6 | 4.8 | 0.00 | 0.33 | 0.33 | 76 | 1014.0 |
| 20260504195004 | 13 | 98 | 0.0 | 4.8 | 0.00 | 0.33 | 0.33 | 76 | 1014.0 |
| 20260504194504 | 13 | 98 | 1.6 | 4.8 | 0.00 | 0.33 | 0.33 | 76 | 1014.0 |
| 20260504193503 | 14 | 98 | 3.2 | 4.8 | 0.00 | 0.33 | 0.33 | 75 | 1013.9 |
| 20260504193005 | 14 | 99 | 3.2 | 4.8 | 0.00 | 0.33 | 0.33 | 74 | 1013.9 |
| 20260504192504 | 14 | 99 | 3.2 | 11.3 | 0.00 | 0.33 | 0.33 | 73 | 1013.9 |
| 20260504192004 | 14 | 106 | 3.2 | 4.8 | 0.00 | 0.33 | 0.33 | 73 | 1013.8 |
| 20260504191503 | 14 | 111 | 1.6 | 4.8 | 0.00 | 0.33 | 0.33 | 72 | 1013.7 |
| 20260504191004 | 15 | 111 | 3.2 | 9.7 | 0.00 | 0.33 | 0.33 | 72 | 1013.7 |
| 20260504190504 | 15 | 112 | 1.6 | 3.2 | 0.00 | 0.33 | 0.33 | 71 | 1013.7 |
| 20260504190004 | 15 | 112 | 3.2 | 4.8 | 0.00 | 0.33 | 0.33 | 71 | 1013.6 |
| 20260504185503 | 15 | 112 | 3.2 | 4.8 | 0.00 | 0.33 | 0.33 | 70 | 1013.6 |
| 20260504185004 | 15 | 113 | 3.2 | 9.7 | 0.00 | 0.33 | 0.33 | 70 | 1013.6 |